Weather History for KFME - January, 2014

Change the Weather History Date:

Monday, January 6, 2014

  Actual Average (KBWI) Record (KBWI)
Temperature  
Mean Temperature 26 °F 33 °F  
Max Temperature 42 °F 41 °F 72 °F (1950)
Min Temperature 10 °F 25 °F 5 °F (1904)
Degree Days  
Heating Degree Days 39 32  
Month to date heating degree days 192  
Since 1 July heating degree days 1973  
Cooling Degree Days 0 0  
Month to date cooling degree days 0  
Year to date cooling degree days 0  
Moisture  
Dew Point 26 °F    
Average Humidity 73    
Maximum Humidity 100    
Minimum Humidity 41    
Precipitation  
Precipitation 0.00 in 0.10 in 2.34 in (1905)
Month to date precipitation 0.58  
Year to date precipitation 0.58  
Snow  
Snow 0.00 in 0.20 in 3.40 in (1989)
Month to date snowfall 0.9  
Since 1 July snowfall 4.3  
Snow Depth -    
Sea Level Pressure  
Sea Level Pressure 29.70 in    
Wind  
Wind Speed 8 mph (WNW)    
Max Wind Speed 23 mph    
Max Gust Speed 36 mph    
Visibility 6 miles    
Events      
T = Trace of Precipitation, MM = Missing Value Source: NWS Daily Summary

Daily Weather History Graph

Daily Weather History Graph

Search for Another Location

Airport or City:

Trip Planner

Search our weather history database for the weather conditions in past years. The results will help you decide how hot, cold, wet, or windy it might be!

Date:

Astronomy

Jan. 06, 2014 Rise Set
Actual Time 7:26 AM EST 4:59 PM EST
Civil Twilight 6:56 AM EST 5:29 PM EST
Nautical Twilight 6:23 AM EST 6:02 PM EST
Astronomical Twilight 5:51 AM EST 6:35 PM EST
Moon 10:43 AM EST (1/6) 11:27 PM EST (1/6)
Length of Visible Light 10h 32m
Length of Day
9h 33m
Waxing Crescent, 34% of the Moon is Illuminated
Jan 6
Waxing Crescent
Jan 7
First Quarter
Jan 15
Full
Jan 24
Last Quarter
Jan 30
New

Hourly Weather History & Observations

Time (EST) Temp. Windchill Dew Point Humidity Pressure Visibility Wind Dir Wind Speed Gust Speed Precip Events Conditions
12:15 AM 33.8 °F 29.6 °F 32.0 °F 93% 29.72 in 0.5 mi WSW 4.6 mph - N/A   Overcast
12:36 AM 35.6 °F - 33.8 °F 93% 29.71 in 0.5 mi Calm Calm - N/A   Overcast
12:57 AM 37.4 °F 33.8 °F 35.6 °F 93% 29.70 in 0.2 mi SW 4.6 mph - N/A   Overcast
1:15 AM 37.4 °F - 35.6 °F 93% 29.68 in 0.2 mi Calm Calm - N/A   Overcast
1:36 AM 37.4 °F - 35.6 °F 93% 29.66 in 0.2 mi Calm Calm - N/A   Overcast
1:57 AM 37.4 °F 33.8 °F 35.6 °F 93% 29.66 in 0.2 mi West 4.6 mph - N/A   Overcast
2:15 AM 35.6 °F 31.7 °F 35.6 °F 100% 29.66 in 0.2 mi West 4.6 mph - N/A   Overcast
2:36 AM 41.0 °F 37.1 °F 39.2 °F 93% 29.64 in 0.5 mi WSW 5.8 mph - N/A   Overcast
2:57 AM 41.0 °F 39.0 °F 39.2 °F 93% 29.61 in 0.5 mi SW 3.5 mph - N/A   Overcast
3:15 AM 41.0 °F 38.0 °F 39.2 °F 93% 29.60 in 0.5 mi SW 4.6 mph - N/A   Overcast
3:36 AM 41.0 °F - 39.2 °F 93% 29.57 in 0.2 mi Calm Calm - N/A   Overcast
3:57 AM 39.2 °F - 37.4 °F 93% 29.56 in 0.2 mi Calm Calm - N/A   Overcast
4:15 AM 39.2 °F - 37.4 °F 93% 29.55 in 0.2 mi Calm Calm - N/A   Overcast
4:36 AM 37.4 °F 32.8 °F 37.4 °F 100% 29.55 in 0.2 mi WSW 5.8 mph - N/A   Overcast
4:57 AM 41.0 °F 39.0 °F 39.2 °F 93% 29.52 in 0.5 mi SW 3.5 mph - N/A   Overcast
5:15 AM 41.0 °F 33.9 °F 39.2 °F 93% 29.55 in 0.5 mi West 12.7 mph 17.3 mph N/A   Overcast
5:36 AM 41.0 °F 37.1 °F 41.0 °F 100% 29.53 in 2.0 mi WSW 5.8 mph - N/A   Overcast
5:57 AM 41.0 °F 37.1 °F 39.2 °F 93% 29.52 in 1.0 mi WSW 5.8 mph - N/A   Overcast
6:15 AM 41.0 °F 35.8 °F 41.0 °F 100% 29.53 in 1.2 mi WSW 8.1 mph - N/A   Overcast
6:36 AM 42.8 °F 38.0 °F 41.0 °F 93% 29.53 in 3.0 mi West 8.1 mph - N/A   Overcast
6:57 AM 42.8 °F 38.0 °F 41.0 °F 93% 29.57 in 2.0 mi West 8.1 mph - N/A   Overcast
7:18 AM 42.8 °F 37.0 °F 42.8 °F 100% 29.56 in 7.0 mi West 10.4 mph - N/A   Overcast
7:36 AM 42.8 °F 39.3 °F 42.8 °F 100% 29.58 in 4.0 mi West 5.8 mph - N/A   Overcast
7:57 AM 42.8 °F 40.1 °F 41.0 °F 93% 29.57 in 1.2 mi West 4.6 mph - N/A   Overcast
8:18 AM 42.8 °F 39.3 °F 41.0 °F 93% 29.58 in 0.5 mi West 5.8 mph - N/A   Overcast
8:36 AM 42.8 °F 37.5 °F 41.0 °F 93% 29.59 in 5.0 mi West 9.2 mph - N/A   Overcast
8:57 AM 41.0 °F 35.2 °F 41.0 °F 100% 29.60 in 10.0 mi West 9.2 mph - N/A   Overcast
9:18 AM 41.0 °F 32.8 °F 39.2 °F 93% 29.62 in 10.0 mi WNW 16.1 mph 21.9 mph N/A   Overcast
9:36 AM 41.0 °F 33.1 °F 37.4 °F 87% 29.64 in 10.0 mi WNW 15.0 mph 25.3 mph N/A   Overcast
9:57 AM 41.0 °F 32.2 °F 32.0 °F 70% 29.65 in 10.0 mi WNW 18.4 mph 27.6 mph N/A   Overcast
10:18 AM 39.2 °F 30.8 °F 32.0 °F 75% 29.66 in 10.0 mi WNW 15.0 mph 32.2 mph N/A   Overcast
10:36 AM 39.2 °F 29.6 °F 32.0 °F 75% 29.67 in 10.0 mi WNW 19.6 mph 25.3 mph N/A   Overcast
10:57 AM 37.4 °F 29.8 °F 30.2 °F 75% 29.67 in 10.0 mi WNW 11.5 mph 19.6 mph N/A   Overcast
11:18 AM 37.4 °F 30.3 °F 28.4 °F 70% 29.67 in 10.0 mi WNW 10.4 mph - N/A   Overcast
11:36 AM 37.4 °F 28.5 °F 26.6 °F 65% 29.67 in 10.0 mi WNW 15.0 mph 26.5 mph N/A   Overcast
11:57 AM 37.4 °F 30.3 °F 26.6 °F 65% 29.67 in 10.0 mi NW 10.4 mph 27.6 mph N/A   Mostly Cloudy
12:18 PM 37.4 °F 26.6 °F 24.8 °F 60% 29.66 in 10.0 mi WNW 21.9 mph 34.5 mph N/A   Mostly Cloudy
12:36 PM 37.4 °F 27.8 °F 24.8 °F 60% 29.66 in 10.0 mi NW 17.3 mph 26.5 mph N/A   Mostly Cloudy
12:57 PM 37.4 °F 27.5 °F 23.0 °F 56% 29.67 in 10.0 mi NW 18.4 mph 29.9 mph N/A   Clear
1:18 PM 37.4 °F 28.9 °F 24.8 °F 60% 29.67 in 10.0 mi NW 13.8 mph 31.1 mph N/A   Clear
1:36 PM 37.4 °F 28.2 °F 23.0 °F 56% 29.68 in 10.0 mi WNW 16.1 mph 24.2 mph N/A   Scattered Clouds
1:57 PM 37.4 °F 28.2 °F 21.2 °F 52% 29.68 in 10.0 mi West 16.1 mph 25.3 mph N/A   Scattered Clouds
2:18 PM 37.4 °F 27.8 °F 21.2 °F 52% 29.69 in 10.0 mi WNW 17.3 mph 26.5 mph N/A   Scattered Clouds
2:36 PM 35.6 °F 25.9 °F 19.4 °F 52% 29.69 in 10.0 mi West 16.1 mph 29.9 mph N/A   Scattered Clouds
2:57 PM 35.6 °F 26.6 °F 19.4 °F 52% 29.70 in 10.0 mi WNW 13.8 mph 28.8 mph N/A   Scattered Clouds
3:18 PM 33.8 °F 24.3 °F 19.4 °F 56% 29.71 in 10.0 mi NW 13.8 mph 24.2 mph N/A   Mostly Cloudy
3:39 PM 35.6 °F 27.5 °F 19.4 °F 52% 29.72 in 10.0 mi WNW 11.5 mph 19.6 mph N/A   Scattered Clouds
3:57 PM 33.8 °F 24.3 °F 19.4 °F 56% 29.73 in 10.0 mi NW 13.8 mph 21.9 mph N/A   Mostly Cloudy
4:18 PM 33.8 °F 26.4 °F 19.4 °F 56% 29.74 in 10.0 mi NW 9.2 mph 19.6 mph N/A   Overcast
4:39 PM 32.0 °F 20.8 °F 15.8 °F 51% 29.76 in 10.0 mi West 17.3 mph 28.8 mph N/A   Overcast
4:57 PM 32.0 °F 23.0 °F 17.6 °F 55% 29.77 in 10.0 mi WNW 11.5 mph 26.5 mph N/A   Overcast
5:18 PM 32.0 °F 22.1 °F 17.6 °F 55% 29.79 in 10.0 mi WNW 13.8 mph 21.9 mph N/A   Mostly Cloudy
5:39 PM 30.2 °F 18.9 °F 14.0 °F 51% 29.80 in 10.0 mi West 16.1 mph 24.2 mph N/A   Scattered Clouds
5:57 PM 30.2 °F 17.8 °F 12.2 °F 47% 29.81 in 10.0 mi WNW 19.6 mph 26.5 mph N/A   Scattered Clouds
6:18 PM 28.4 °F 15.1 °F 10.4 °F 47% 29.83 in 10.0 mi WNW 20.7 mph 31.1 mph N/A   Scattered Clouds
6:39 PM 26.6 °F 12.0 °F 8.6 °F 47% 29.85 in 10.0 mi WNW 23.0 mph 31.1 mph N/A   Clear
6:57 PM 26.6 °F 13.8 °F 8.6 °F 47% 29.86 in 10.0 mi WNW 17.3 mph 31.1 mph N/A   Scattered Clouds
7:18 PM 24.8 °F 10.0 °F 6.8 °F 46% 29.88 in 10.0 mi WNW 21.9 mph 33.4 mph N/A   Scattered Clouds
7:24 PM 23.0 °F 8.0 °F 5.0 °F 46% 29.88 in 10.0 mi WNW 20.7 mph 35.7 mph N/A   Clear
10:39 PM 12.2 °F -3.7 °F -5.8 °F 45% 30.06 in 10.0 mi WNW 15.0 mph 28.8 mph N/A   Unknown
10:57 PM 12.2 °F -5.8 °F -5.8 °F 45% 30.07 in 10.0 mi WNW 19.6 mph 26.5 mph N/A   Clear
11:18 PM 10.4 °F -7.2 °F -9.4 °F 41% 30.09 in 10.0 mi NW 17.3 mph 27.6 mph N/A   Clear
11:39 PM 10.4 °F -7.7 °F -9.4 °F 41% 30.10 in 10.0 mi WNW 18.4 mph 24.2 mph N/A   Clear
11:57 PM 10.4 °F -2.4 °F -9.4 °F 41% 30.11 in 10.0 mi West 9.2 mph 17.3 mph N/A   Clear